Other Surface Observations
Issued by NWS Tucson, AZ

Home | Current Version | Previous Version | Text Only | Print | Product List | Glossary On
Versions: 1 2 3 4 5 6 7 8 9 10 11 12 13 14 15 16 17 18 19 20 21 22 23 24 25 26 27 28 29 30 31 32 33 34 35 36 37 38 39 40 41 42 43 44 45 46 47 48 49 50
000
SXUS55 KTWC 251915
OSOTWC

WEATHER ROUNDUP FOR SOUTHEAST ARIZONA
NATIONAL WEATHER SERVICE TUCSON AZ
1215 PM MST MON SEP 25 2017

AZZ504>506-514-252015-
LOCATION       SKY/WX    TMP DP  RH WIND       PRES   REMARKS
TUCSON         SUNNY     82  22  11 CALM      29.86F
DAVIS-MONTHAN  SUNNY     82  22  11 CALM      29.84F
CHILDRENS PARK N/A      N/A N/A  13 SW1               PIMA CO DEQ
ALVERNON/22ND  N/A       76 N/A N/A NW3               PIMA CO DEQ
CHERRY/GLENN   N/A      N/A N/A N/A N/A               PIMA CO DEQ
TANGERINE      N/A       77 N/A N/A SW2               PIMA CO DEQ
CONTL RANCH    N/A       78  19  11 SE3               PIMA CO DEQ
GRANT/1ST      N/A       76  22  13 NW1               PIMA CO DEQ
CRAYCROFT/22ND N/A       78  23  13 N/A               PIMA CO DEQ
GOLFLINKS/KOLB N/A       77  22  13 NW2               PIMA CO DEQ
AJO/12TH       N/A       77  24  14 S2                PIMA CO DEQ
FAIRGROUNDS    N/A       77 N/A N/A W5                PIMA CO DEQ
SAGUARO        N/A       83  25  12 S3                *SABINO CYN
SAN CARLOS     N/A       80  21  11 W3                *SAN CARLOS
GREEN VALLEY   N/A       78  21  12 SE2               PIMA CO DEQ
HORSE CAMP CYN N/A       75  21  13 W7G13             *ARAVAIPA CYN
RINCON MTNS    N/A       65  28  25 SW2               *NR MANNING CAMP
$$

AZZ509>511-252015-
LOCATION       SKY/WX    TMP DP  RH WIND       PRES   REMARKS
SAFFORD        SUNNY     77  24  14 CALM      29.86F
STRAY HORSE    N/A       63  26  24 SW4G10            *
TRAIL CABIN    N/A       71  29  21 NW3G10            *N OF GRANVILLE
BLACK HILLS    NOT AVBL
DRY LAKE       N/A       66  25  21 SW5G10            *NATANES MTNS
NOON CREEK     N/A       74  25  16 NE5G11            *PINALENO MTNS
COLUMBINE      N/A       52  28  40 S4G10             *PINALENO MTNS
GUTHRIE        N/A       71  25  18 E2                *SW OF GUTHRIE
$$

AZZ502-503-513-252015-
LOCATION       SKY/WX    TMP DP  RH WIND       PRES   REMARKS
NOGALES        SUNNY     79  32  18 N8        29.90F
SELLS          N/A       82  18   9 NE4               *
SASABE         N/A       79  24  13 E3G10             *ALTAR VLY
HOPKINS        N/A       68  32  26 W4G12             *SANTA RITA MTNS
CARR CYN       N/A       74  37  26 N5G10             *W OF HEREFORD
$$

AZZ507-508-512-252015-
LOCATION       SKY/WX    TMP DP  RH WIND       PRES   REMARKS
SIERRA VISTA   SUNNY     75  29  18 CALM      29.94F
DOUGLAS        SUNNY     77  31  18 VRB5      29.91F
EMPIRE MTNS    NOT AVBL
MULESHOE RANCH N/A       76  28  17 NW3G14            *PRESERVE
HEADQUARTERS   N/A       74  29  19 W5G13             *CHIRICAHUA MTNS
$$

.............................NOTES.............................
THIS IS AN AUTOMATED COLLECTIVE WITH MINIMAL QUALITY CONTROL.
PIMA CO DEQ SITES HAVE NONSTANDARD WIND SENSOR HEIGHTS.
PIMA CO DEQ SITES DO NOT REPORT WIND GUSTS.
* INDICATES WIND SENSORS LOCATED AT 20 FEET INSTEAD OF 33 FEET.
..............................KEY..............................
SKY/WX - SKY CONDITION/WEATHER
TMP    - TEMPERATURE IN FAHRENHEIT
DP     - DEWPOINT IN FAHRENHEIT
RH     - RELATIVE HUMIDITY IN PERCENT
WIND   - DIRECTION AND SPEED IN MILES PER HOUR (MPH)
VRB    - VARIABLE WIND DIRECTION
PRES   - MEAN SEA LEVEL PRESSURE IN INCHES OF MERCURY
         F - FALLING PRESSURE   R - RISING PRESSURE
         S - STEADY PRESSURE
VSB    - VISIBILITY IN MILES
HX     - HEAT INDEX IN FAHRENHEIT
WCI    - WIND CHILL INDEX IN FAHRENHEIT
N/A    - NOT AVAILABLE
AFB    - AIR FORCE BASE
         DAVIS-MONTHAN IS DAVIS-MONTHAN AIR FORCE BASE
CYN    - CANYON
MTNS   - MOUNTAINS
NCA    - NATIONAL CONSERVATION AREA
NR     - NEAR
VLY    - VALLEY
CONTL  - CONTINENTAL
PIMA CO DEQ - PIMA COUNTY DEPT OF ENVIRONMENTAL QUALITY



USA.gov is the U.S. government's official web portal to all federal, state and local government web resources and services.